Theta_e
296 296 297 298 297 296 296 298 298 297 295 295 295 294 297 295 293 294 293 293 292 292 295 298 299 299 299 299 299 298 298 298 298 297 297 297 297 297 296 296 296 296 296 296
296 296 296 297 297 298 298 299 298 296 295 295 295 296 297 295 294 293 293 292 292 293 294 296 298 298 298 298 298 298 298 297 297 297 296 296 296 296 296 296 296 296 296 295
297 296 296 297 296 298 297 299 297 297 295 294 293 297 299 298 296 295 293 293 293 292 293 293 296 298 297 298 297 297 297 297 297 296 296 295 295 295 295 295 295 295 295 295
294 295 297 297 298 296 300 296 296 297 297 300 294 301 298 298 296 297 296 292 293 292 293 293 295 296 297 297 297 297 297 296 296 296 295 295 294 294 295 294 295 294 294 295
297 295 297 298 297 296 298 296 296 296 295 295 297 296 298 297 300 298 296 294 292 292 292 292 294 296 297 297 297 296 296 296 296 295 295 295 294 294 294 294 294 294 294 294
294 294 296 296 295 296 296 297 297 294 295 299 299 296 300 300 300 300 298 294 293 292 292 292 295 295 296 297 296 295 295 296 296 296 295 294 294 293 293 293 293 293 293 293
297 296 294 294 296 295 297 299 301 302 299 305 296 296 300 300 298 298 299 296 293 292 292 292 292 294 295 296 295 295 295 295 296 295 294 293 293 293 293 292 291 291 291 292
297 299 295 293 294 296 295 297 301 300 302 301 297 299 302 297 297 294 295 294 293 292 292 292 293 294 295 295 294 294 294 295 295 294 293 292 292 292 291 290 290 290 290 291
296 299 293 293 293 294 296 297 295 295 291 297 298 298 299 298 296 295 295 294 293 293 292 292 293 294 294 294 294 294 294 295 294 293 292 291 291 290 290 291 291 291 291 291
296 297 294 294 293 293 295 294 297 294 297 297 300 300 303 304 302 298 295 294 293 292 292 292 293 294 294 294 294 293 295 294 293 291 291 290 289 289 289 289 290 291 291 291
286 294 295 292 292 294 294 294 293 293 297 300 300 301 297 300 300 298 295 294 292 292 292 292 291 293 293 293 293 293 294 293 291 290 289 288 288 288 288 289 289 289 289 290
291 291 295 294 292 292 293 294 295 297 295 294 298 298 298 297 296 296 295 294 293 292 291 290 290 292 292 292 292 294 293 292 290 289 288 288 287 287 287 287 287 287 287 288
292 291 290 295 293 291 289 294 294 294 294 293 296 302 296 296 296 295 294 294 293 292 291 290 289 290 291 292 292 293 292 291 289 288 287 287 286 286 286 285 285 286 286 286
294 291 293 300 297 291 290 287 293 291 291 296 297 301 301 301 299 296 294 292 292 291 290 289 289 289 291 291 292 293 291 290 288 287 286 286 285 285 285 285 285 285 286 286
291 290 289 290 294 289 290 287 291 295 297 297 301 298 299 300 297 294 293 291 291 290 290 290 290 289 290 291 292 292 291 289 288 286 286 285 285 285 285 285 285 285 285 285
289 288 286 287 291 294 294 292 291 295 297 297 297 297 298 298 298 297 296 292 291 291 291 291 290 290 290 291 292 291 290 289 287 286 285 285 285 285 285 285 285 285 285 285
290 287 286 290 291 291 293 293 294 295 294 295 296 298 300 298 296 295 293 292 293 292 292 291 291 289 291 292 292 290 289 288 287 286 285 285 285 285 284 285 284 285 285 284
293 291 292 287 286 296 304 294 292 295 296 295 296 296 297 298 294 293 292 293 293 293 291 290 289 290 291 292 292 290 289 288 286 286 285 285 284 285 284 285 284 284 284 284
292 296 294 296 283 294 303 296 292 292 299 295 295 295 296 295 294 296 295 293 294 292 291 291 292 292 292 292 292 290 289 288 286 285 285 285 284 285 284 284 284 284 284 285
293 295 299 288 298 300 305 294 291 292 301 298 297 296 296 294 296 297 296 293 292 291 292 291 292 292 292 292 291 290 289 285 285 285 286 286 286 285 284 284 284 285 285 285
295 295 298 296 296 293 294 293 292 302 307 300 296 296 293 294 296 296 294 294 293 292 291 293 292 292 292 292 291 290 287 286 287 288 287 286 286 285 285 284 286 286 286 285
297 296 297 297 297 299 291 292 298 301 298 298 293 295 293 294 293 293 293 292 291 290 290 292 291 291 292 292 291 290 288 289 289 288 287 286 285 286 287 285 288 288 287 285
299 297 296 297 297 294 291 295 295 295 297 296 297 294 293 293 293 292 292 291 290 290 291 291 292 291 291 291 291 290 291 290 289 289 287 286 285 286 287 286 286 289 288 286
292 293 296 297 298 295 292 292 292 293 292 293 293 294 292 293 292 291 291 290 289 290 289 291 290 289 290 291 291 292 292 291 290 289 287 286 285 286 286 287 286 286 286 285
296 295 297 295 298 297 298 293 294 295 292 291 291 291 292 291 292 291 291 291 291 291 290 291 289 289 290 291 291 292 291 291 289 289 288 286 285 286 286 287 286 286 286 285
292 295 300 303 303 305 307 302 295 293 294 294 294 292 290 290 291 291 290 291 290 290 289 289 289 289 290 290 291 291 291 291 289 287 288 287 286 285 286 285 285 285 285 285
Wind_Speed
5 6 3 3 0 1 5 2 2 3 1 5 4 10 23 9 10 14 13 12 10 10 12 13 11 11 13 14 16 22 21 24 25 29 33 34 32 34 36 35 32 27 30 26
6 3 3 1 2 2 2 1 3 5 1 3 5 17 16 6 6 8 12 12 11 6 7 12 11 11 13 15 18 20 19 23 25 27 29 29 32 36 37 32 27 30 28 25
5 2 1 0 4 2 2 1 2 2 8 1 8 8 5 3 3 4 6 7 7 10 9 7 9 12 13 14 17 17 19 21 23 25 28 31 33 30 29 28 28 27 30 28
5 1 2 2 3 2 1 2 2 4 6 3 4 5 8 4 8 5 5 7 8 9 7 5 9 12 12 14 15 17 18 19 21 24 26 28 31 28 29 29 28 32 31 30
2 2 2 2 1 1 2 1 1 1 2 3 1 2 9 4 6 6 7 8 9 9 8 8 11 12 12 12 15 16 17 19 21 26 29 30 29 27 30 28 29 27 27 26
3 1 1 2 2 2 2 2 3 3 2 2 1 3 6 4 5 2 3 7 9 9 8 9 11 11 13 12 14 16 17 21 25 27 32 30 31 30 28 29 29 28 27 25
3 1 1 1 3 2 2 4 3 5 3 4 0 1 12 3 6 5 4 7 9 8 8 6 6 12 12 13 14 15 17 24 26 30 30 29 30 30 29 28 30 29 28 27
4 5 1 3 2 2 2 3 4 5 2 5 3 7 6 6 5 7 6 6 5 7 6 6 8 12 12 13 13 15 19 22 27 29 30 30 29 27 28 27 27 29 29 30
5 4 1 2 1 1 3 1 1 5 2 3 4 8 11 7 11 8 9 6 8 8 7 8 9 11 12 12 14 16 18 23 28 29 29 28 27 27 27 29 30 30 31 30
5 2 1 2 2 2 3 5 3 3 1 5 5 5 8 4 3 2 6 9 9 8 7 7 8 13 12 13 14 16 19 23 27 29 27 26 29 27 28 30 31 32 32 32
3 3 1 2 5 7 3 2 3 3 4 4 3 6 7 7 4 8 9 10 9 9 8 7 9 15 11 13 14 17 20 24 27 28 26 27 28 28 29 29 30 30 32 34
5 5 4 6 1 1 1 3 5 4 6 3 2 9 4 7 7 5 9 7 6 7 8 7 11 14 11 13 15 17 20 22 26 28 28 24 26 26 27 29 31 32 36 36
4 2 2 7 4 4 3 5 3 4 2 7 5 7 1 3 4 7 9 9 8 8 9 8 8 7 12 12 13 15 18 21 25 27 23 23 25 25 27 29 30 32 35 36
6 2 6 7 5 4 4 4 6 5 3 4 9 21 22 20 15 9 8 10 9 9 9 7 7 7 11 11 12 14 17 19 23 22 20 22 24 25 28 29 31 33 34 34
6 6 4 4 4 2 4 5 8 13 13 9 23 16 25 22 8 8 7 7 8 9 9 8 7 6 8 10 12 13 15 19 21 20 19 22 24 25 28 29 31 31 31 32
1 3 3 4 2 5 7 7 11 20 13 17 26 29 31 30 23 21 17 9 10 10 9 8 7 5 9 9 10 11 13 17 18 20 20 22 24 25 27 28 30 29 29 31
7 6 3 6 3 3 11 14 23 16 8 17 17 28 27 20 14 11 10 9 12 12 9 8 7 7 9 9 7 9 12 14 15 16 18 21 22 23 27 28 28 28 29 31
8 6 2 3 2 3 8 2 5 20 17 22 19 24 25 16 6 9 10 11 13 12 9 8 6 9 9 7 6 7 9 11 14 15 18 20 21 23 26 26 26 26 27 28
4 5 3 3 5 8 16 8 10 9 14 23 26 28 27 9 7 21 14 17 18 9 7 9 10 10 7 5 5 6 7 9 11 13 18 22 22 23 24 24 25 25 27 31
4 3 7 4 5 10 7 2 5 6 9 17 15 19 12 6 2 6 4 6 9 10 10 12 11 9 7 6 5 6 6 5 8 12 16 18 19 21 22 22 22 26 29 29
6 4 16 8 5 10 14 5 4 5 8 3 7 10 9 6 8 3 2 1 4 9 15 12 12 12 10 8 7 8 6 5 5 10 12 14 17 18 21 19 24 26 27 28
13 11 6 6 6 13 10 5 10 7 5 6 6 6 9 10 8 7 6 5 5 7 11 15 14 15 13 12 12 10 9 4 2 7 9 10 13 16 20 17 22 28 29 26
7 11 10 15 10 4 13 6 19 6 6 4 3 6 10 9 8 9 9 7 8 11 16 13 16 17 16 16 16 15 10 6 2 2 5 8 11 13 16 17 19 26 28 24
5 5 5 6 16 21 16 19 10 5 8 5 6 4 5 8 8 8 7 8 7 12 16 20 18 17 19 21 22 20 11 8 6 3 1 3 9 11 14 15 13 16 18 17
7 14 12 4 14 10 17 18 22 18 11 8 13 10 13 9 11 10 8 9 9 14 18 22 21 21 25 23 26 22 19 14 11 8 6 3 4 8 10 12 12 12 15 14
7 10 10 12 25 14 22 13 20 18 18 19 16 11 13 13 17 13 10 13 13 14 14 18 23 23 27 24 27 26 24 21 16 13 11 9 5 5 7 6 6 10 12 12
Wind_Direction
8 64 106 147 332 106 102 99 274 262 41 334 237 277 280 241 232 236 229 235 243 236 249 251 258 265 286 299 304 313 307 321 325 327 326 322 317 319 318 320 318 312 316 308
30 90 188 265 346 104 68 151 276 276 163 6 341 291 282 258 237 224 223 223 227 225 239 248 253 269 283 298 311 317 309 320 325 324 321 316 315 314 315 316 310 307 315 309
128 114 122 74 35 98 49 31 3 290 325 233 316 290 318 278 257 246 239 219 207 212 226 250 263 271 285 297 316 319 320 322 324 323 320 319 316 314 312 309 307 308 312 307
85 339 77 77 84 44 322 77 60 335 14 288 14 280 302 323 301 263 248 217 220 219 233 244 252 265 279 302 319 322 322 322 324 324 322 320 314 308 307 306 304 306 308 307
186 121 110 107 99 39 152 26 57 87 72 348 9 45 271 341 285 265 242 230 228 226 225 247 245 256 286 306 321 325 323 322 328 325 320 315 306 303 304 303 303 301 302 301
106 198 63 114 63 84 149 128 65 52 72 8 235 136 279 219 217 233 229 229 225 224 235 240 258 284 288 305 322 324 323 324 328 323 319 317 312 306 305 305 305 305 302 295
10 185 98 93 147 159 119 63 328 348 3 229 348 220 246 269 241 228 213 235 227 219 212 233 279 292 293 313 320 320 322 325 326 324 325 322 313 310 303 305 305 304 308 301
143 319 40 358 50 140 94 145 158 230 250 279 297 237 252 219 235 253 275 264 219 207 215 232 271 281 286 303 311 316 324 323 327 329 326 319 312 306 303 305 303 299 298 299
131 254 160 81 76 78 154 140 149 99 64 35 241 288 294 252 262 261 235 235 247 239 224 242 268 291 290 298 307 317 319 324 331 331 326 317 312 303 301 300 297 298 297 297
219 71 344 72 134 77 160 153 74 6 332 294 278 277 245 294 274 251 236 238 239 236 249 258 279 301 289 291 305 314 322 329 334 333 329 320 313 309 306 304 294 292 295 298
124 107 266 47 207 174 140 174 61 115 160 199 297 254 219 236 244 240 242 242 233 232 242 270 287 300 281 291 304 316 328 336 337 335 328 323 318 316 312 303 301 303 302 297
202 147 182 215 120 20 332 218 174 135 229 225 153 267 262 231 246 240 259 268 259 243 264 269 279 294 283 290 309 321 332 338 340 335 331 325 320 321 313 307 307 304 302 303
207 290 25 339 -0 3 214 199 200 87 79 203 155 259 172 240 264 255 251 261 258 258 272 277 283 273 274 285 306 323 334 341 340 336 331 326 325 320 315 313 312 312 309 305
124 119 181 195 206 132 200 220 189 148 149 184 223 273 265 270 273 267 246 252 261 259 259 267 282 261 267 283 307 322 336 344 342 339 333 328 324 322 320 319 318 315 313 309
139 200 168 242 210 176 214 184 186 208 218 208 267 239 266 267 259 243 239 253 257 264 264 260 251 254 266 287 307 325 337 343 344 339 336 327 323 324 323 323 320 320 319 319
192 204 123 291 4 212 265 199 210 222 234 256 258 274 266 277 280 273 275 263 267 264 258 256 245 240 256 273 297 321 337 340 343 348 338 329 326 328 328 325 326 326 327 329
156 138 111 261 10 352 287 217 211 221 198 227 245 245 270 278 268 262 256 231 249 259 251 253 242 227 242 264 289 321 335 338 348 351 338 333 331 335 335 330 333 332 336 336
150 140 121 203 28 239 254 134 176 214 238 224 250 261 259 269 281 258 230 235 249 246 247 240 231 216 234 249 283 314 329 340 354 352 342 337 339 342 340 338 338 340 340 347
174 133 154 178 204 301 285 201 169 167 252 222 234 249 259 280 319 291 255 222 236 232 224 232 212 211 217 243 276 300 324 341 356 350 349 349 355 347 342 344 342 346 347 357
179 70 184 143 202 209 264 100 140 137 275 223 212 241 259 133 268 259 255 186 214 215 201 190 199 203 221 243 249 279 303 331 347 353 349 351 5 359 348 349 354 5 6 358
172 181 206 195 223 280 245 156 171 128 254 177 180 221 161 194 208 292 349 236 197 193 186 188 199 209 220 227 225 246 264 286 339 355 353 0 17 5 7 358 26 23 14 358
171 165 191 178 200 258 143 83 186 204 218 199 182 192 195 225 242 258 269 265 240 224 202 198 199 215 216 219 215 231 248 259 335 359 360 13 22 15 27 357 35 38 29 9
194 186 174 191 205 251 209 220 217 211 200 188 192 193 204 213 236 242 246 241 230 231 236 223 219 224 215 217 217 223 240 217 216 6 7 33 54 38 40 19 29 49 37 17
244 170 178 128 242 244 229 245 275 244 235 277 261 235 201 230 236 246 230 243 239 241 233 232 222 228 228 219 221 224 221 208 207 188 211 36 70 57 46 49 19 40 37 14
177 154 202 262 275 277 258 224 235 250 241 235 252 229 239 236 252 238 248 251 250 240 227 229 221 226 235 225 224 220 213 210 206 202 194 204 104 88 78 63 43 20 36 36
187 178 184 216 232 220 245 218 210 224 238 237 245 249 237 222 241 249 240 250 247 250 226 230 235 235 243 228 224 219 209 211 205 206 201 206 176 137 108 94 57 49 38 32